Location: Barrio de Canyet
(41.4665°N, 2.2381°E)
Time: 00:58:46
(UTC+00:00)

ATLAS CENTAUR R/B - Pass Details

Date: 09 April 2020
Orbit: 471 x 675 km, 64.7° (Epoch: 01 June)

Event Time Altitude Azimuth Distance (km) Brightness Sun altitude
Rises 21:55:54 0° 328° (NNW) 2,633 5.9 -33.8°
Reaches altitude 10° 21:58:08 10° 330° (NNW) 1,715 4.6 -34.0°
Enters shadow 21:58:37 13° 330° (NNW) 1,516 4.3 -34.1°
